KRH646R EGSS-EBBR

Flight info

Callsign KRH646R
Flight time N/A
Altitude 23000
Route CLN M84 KONAN UL607 KOK
Aircraft A332/H-SDE3GHIJ2J3J5M1RVWXY/LB2D1

Departure

Time 2026-05-06 16:36
Airport London Stansted Airport (EGSS)

Arrival

Time N/A
Airport Brussels Airport (EBBR)
Time Latitude Longitude Altitude Speed Heading
2026-05-06 16:27 51.88464 0.22730 337 ft 0 kts 293°
2026-05-06 16:29 51.88463 0.22734 337 ft 2 kts 293°
2026-05-06 16:29 51.88450 0.22783 334 ft 6 kts 293°
2026-05-06 16:29 51.88435 0.22841 334 ft 6 kts 293°
2026-05-06 16:29 51.88419 0.22900 356 ft 6 kts 287°
2026-05-06 16:30 51.88418 0.22961 356 ft 6 kts 236°
2026-05-06 16:30 51.88437 0.22991 357 ft 6 kts 223°
2026-05-06 16:30 51.88441 0.22997 356 ft 0 kts 223°
2026-05-06 16:32 51.88440 0.22996 356 ft 1 kts 223°
2026-05-06 16:32 51.88396 0.22929 355 ft 15 kts 223°
2026-05-06 16:33 51.88292 0.22775 348 ft 24 kts 223°
2026-05-06 16:33 51.88162 0.22579 355 ft 26 kts 223°
2026-05-06 16:33 51.88031 0.22382 358 ft 26 kts 223°
2026-05-06 16:34 51.87746 0.21954 353 ft 23 kts 223°
2026-05-06 16:34 51.87667 0.21916 337 ft 13 kts 173°
2026-05-06 16:34 51.87576 0.21957 336 ft 15 kts 152°
2026-05-06 16:34 51.87573 0.22086 336 ft 13 kts 54°
2026-05-06 16:35 51.87639 0.22190 351 ft 22 kts 43°
2026-05-06 16:35 51.87933 0.22629 355 ft 94 kts 43°
2026-05-06 16:35 51.88581 0.23600 357 ft 158 kts 42°
2026-05-06 16:35 51.89473 0.24951 819 ft 186 kts 41°
2026-05-06 16:36 51.90486 0.26422 1550 ft 207 kts 39°
2026-05-06 16:36 51.91661 0.28023 2068 ft 236 kts 37°
2026-05-06 16:36 51.93032 0.29781 2455 ft 266 kts 36°
2026-05-06 16:36 51.94581 0.31724 2746 ft 296 kts 42°
2026-05-06 16:37 51.95645 0.34601 3584 ft 300 kts 73°
2026-05-06 16:37 51.95658 0.37736 4386 ft 268 kts 105°
2026-05-06 16:37 51.94701 0.40229 5080 ft 260 kts 131°
2026-05-06 16:37 51.93554 0.42516 5900 ft 265 kts 122°
2026-05-06 16:38 51.92624 0.45115 6953 ft 269 kts 119°
2026-05-06 16:38 51.91518 0.47608 7926 ft 276 kts 126°
2026-05-06 16:38 51.90318 0.50050 8863 ft 285 kts 129°
2026-05-06 16:38 51.89023 0.52532 9855 ft 292 kts 130°
2026-05-06 16:39 51.87668 0.55062 10608 ft 306 kts 131°
2026-05-06 16:39 51.86644 0.56961 10884 ft 324 kts 131°
2026-05-06 16:42 51.88464 0.22730 10884 ft 7 kts 293°